Previsão horária em Barletta

Hoje, 31 Outubro, Sábado

Tempo Temperatura Precipitação Vento Pressão Humidade
00:00 +14°C° 0 mm 3 m/s 766 mmHg 80%
01:00 +14°C° 0 mm 3 m/s 765 mmHg 77%
02:00 +14°C° 0 mm 3 m/s 765 mmHg 76%
03:00 +14°C° 0 mm 3 m/s 765 mmHg 74%
04:00 +14°C° 0 mm 3 m/s 765 mmHg 72%
05:00 +15°C° 0 mm 2 m/s 765 mmHg 70%
06:00 +15°C° 0 mm 2 m/s 765 mmHg 69%
07:00 +15°C° 0 mm 2 m/s 765 mmHg 68%
08:00 +17°C° 0 mm 2 m/s 765 mmHg 63%
09:00 +18°C° 0 mm 2 m/s 765 mmHg 57%
10:00 +20°C° 0 mm 2 m/s 765 mmHg 52%
11:00 +21°C° 0 mm 2 m/s 765 mmHg 49%
12:00 +23°C° 0 mm 2 m/s 765 mmHg 45%
13:00 +24°C° 0 mm 2 m/s 765 mmHg 42%
14:00 +23°C° 0 mm 2 m/s 764 mmHg 46%
15:00 +22°C° 0 mm 3 m/s 764 mmHg 49%
16:00 +21°C° 0 mm 3 m/s 764 mmHg 52%
17:00 +20°C° 0 mm 3 m/s 764 mmHg 59%
18:00 +19°C° 0 mm 2 m/s 764 mmHg 66%
19:00 +18°C° 0 mm 2 m/s 764 mmHg 72%
20:00 +17°C° 0 mm 2 m/s 764 mmHg 72%
21:00 +17°C° 0 mm 2 m/s 764 mmHg 71%
22:00 +18°C° 0 mm 1 m/s 764 mmHg 70%
23:00 +17°C° 0 mm 2 m/s 764 mmHg 70%

Amanhã, 1 Novembro, Domingo

Tempo Temperatura Precipitação Vento Pressão Humidade
00:00 +17°C° 0 mm 2 m/s 764 mmHg 70%
01:00 +16°C° 0 mm 2 m/s 764 mmHg 70%
02:00 +16°C° 0 mm 2 m/s 764 mmHg 70%
03:00 +16°C° 0 mm 2 m/s 764 mmHg 70%
04:00 +16°C° 0 mm 3 m/s 764 mmHg 69%
05:00 +16°C° 0 mm 3 m/s 764 mmHg 70%
06:00 +16°C° 0 mm 2 m/s 764 mmHg 70%
07:00 +16°C° 0 mm 2 m/s 764 mmHg 70%
08:00 +17°C° 0 mm 2 m/s 764 mmHg 64%
09:00 +19°C° 0 mm 2 m/s 764 mmHg 58%
10:00 +21°C° 0 mm 2 m/s 764 mmHg 53%
11:00 +21°C° 0 mm 2 m/s 764 mmHg 51%
12:00 +23°C° 0 mm 2 m/s 764 mmHg 49%
13:00 +24°C° 0 mm 2 m/s 764 mmHg 47%
14:00 +23°C° 0 mm 2 m/s 764 mmHg 50%
15:00 +23°C° 0 mm 2 m/s 764 mmHg 53%
16:00 +23°C° 0 mm 2 m/s 763 mmHg 56%
17:00 +20°C° 0 mm 2 m/s 764 mmHg 62%
18:00 +19°C° 0 mm 2 m/s 764 mmHg 69%
19:00 +18°C° 0 mm 2 m/s 764 mmHg 75%
20:00 +19°C° 0 mm 1 m/s 764 mmHg 76%
21:00 +19°C° 0 mm 1 m/s 764 mmHg 76%
22:00 +19°C° 0 mm 1 m/s 765 mmHg 77%
23:00 +18°C° 0 mm 1 m/s 765 mmHg 78%

Depois de amanhã, 2 Novembro, Segunda-feira

Tempo Temperatura Precipitação Vento Pressão Humidade
00:00 +17°C° 0 mm 2 m/s 765 mmHg 80%
01:00 +16°C° 0 mm 2 m/s 765 mmHg 81%
02:00 +16°C° 0 mm 2 m/s 765 mmHg 82%
03:00 +14°C° 0 mm 3 m/s 765 mmHg 82%
04:00 +14°C° 0 mm 3 m/s 765 mmHg 83%
05:00 +14°C° 0 mm 3 m/s 765 mmHg 83%
06:00 +14°C° 0 mm 3 m/s 765 mmHg 83%
07:00 +14°C° 0 mm 3 m/s 765 mmHg 83%
08:00 +16°C° 0 mm 3 m/s 765 mmHg 76%
09:00 +18°C° 0 mm 2 m/s 766 mmHg 69%
10:00 +19°C° 0 mm 2 m/s 766 mmHg 62%
11:00 +20°C° 0 mm 2 m/s 766 mmHg 59%
12:00 +22°C° 0 mm 1 m/s 766 mmHg 55%
13:00 +23°C° 0 mm 1 m/s 765 mmHg 51%
14:00 +21°C° 0 mm 2 m/s 765 mmHg 56%
15:00 +21°C° 0 mm 2 m/s 765 mmHg 60%
16:00 +20°C° 0 mm 3 m/s 765 mmHg 65%
17:00 +19°C° 0 mm 2 m/s 765 mmHg 70%
18:00 +18°C° 0 mm 2 m/s 765 mmHg 76%
19:00 +18°C° 0 mm 1 m/s 765 mmHg 82%
20:00 +18°C° 0 mm 1 m/s 765 mmHg 82%
21:00 +16°C° 0 mm 0 m/s 765 mmHg 82%
22:00 +16°C° 0 mm 0 m/s 765 mmHg 82%
23:00 +16°C° 0 mm 0 m/s 765 mmHg 82%

3 Novembro, Terça-feira

Tempo Temperatura Precipitação Vento Pressão Humidade
00:00 +16°C° 0 mm 1 m/s 765 mmHg 83%
01:00 +16°C° 0 mm 1 m/s 765 mmHg 83%
02:00 +16°C° 0 mm 1 m/s 765 mmHg 83%
03:00 +16°C° 0 mm 2 m/s 765 mmHg 83%
04:00 +15°C° 0 mm 2 m/s 765 mmHg 83%
05:00 +15°C° 0 mm 2 m/s 765 mmHg 84%
06:00 +15°C° 0 mm 2 m/s 765 mmHg 84%
07:00 +14°C° 0 mm 3 m/s 764 mmHg 84%
08:00 +17°C° 0 mm 3 m/s 765 mmHg 78%
09:00 +18°C° 0 mm 3 m/s 765 mmHg 71%
10:00 +20°C° 0 mm 3 m/s 765 mmHg 65%
11:00 +20°C° 0 mm 2 m/s 765 mmHg 63%
12:00 +21°C° 0 mm 2 m/s 764 mmHg 60%
13:00 +21°C° 0 mm 2 m/s 764 mmHg 57%
14:00 +21°C° 0 mm 2 m/s 764 mmHg 60%
15:00 +21°C° 0 mm 2 m/s 764 mmHg 63%
16:00 +20°C° 0 mm 2 m/s 764 mmHg 66%
17:00 +19°C° 0 mm 2 m/s 764 mmHg 70%
18:00 +18°C° 0 mm 2 m/s 764 mmHg 75%
19:00 +18°C° 0 mm 2 m/s 764 mmHg 80%
20:00 +17°C° 0 mm 2 m/s 764 mmHg 81%
21:00 +17°C° 0 mm 2 m/s 764 mmHg 81%
22:00 +17°C° 0 mm 2 m/s 764 mmHg 82%
23:00 +16°C° 0 mm 2 m/s 764 mmHg 82%

4 Novembro, Quarta-feira

Tempo Temperatura Precipitação Vento Pressão Humidade
00:00 +16°C° 0 mm 2 m/s 764 mmHg 82%
01:00 +16°C° 0 mm 2 m/s 764 mmHg 83%
02:00 +16°C° 0 mm 2 m/s 763 mmHg 82%
03:00 +16°C° 0 mm 2 m/s 763 mmHg 82%
04:00 +16°C° 0 mm 2 m/s 763 mmHg 82%
05:00 +16°C° 0 mm 2 m/s 763 mmHg 82%
06:00 +16°C° 0 mm 2 m/s 763 mmHg 82%
07:00 +15°C° 0 mm 2 m/s 763 mmHg 82%
08:00 +17°C° 0 mm 2 m/s 763 mmHg 76%
09:00 +18°C° 0 mm 2 m/s 763 mmHg 71%
10:00 +20°C° 0 mm 1 m/s 764 mmHg 65%
11:00 +21°C° 0 mm 1 m/s 763 mmHg 62%
12:00 +22°C° 0 mm 1 m/s 763 mmHg 59%
13:00 +23°C° 0 mm 1 m/s 763 mmHg 56%
14:00 +22°C° 0 mm 1 m/s 763 mmHg 59%
15:00 +21°C° 0 mm 2 m/s 763 mmHg 62%
16:00 +20°C° 0 mm 3 m/s 763 mmHg 65%
17:00 +19°C° 0 mm 2 m/s 763 mmHg 70%
18:00 +18°C° 0 mm 2 m/s 764 mmHg 76%
19:00 +17°C° 0 mm 2 m/s 764 mmHg 81%
20:00 +18°C° 0 mm 1 m/s 764 mmHg 82%
21:00 +18°C° 0 mm 1 m/s 765 mmHg 83%
22:00 +18°C° 0 mm 1 m/s 765 mmHg 83%
23:00 +16°C° 0 mm 1 m/s 765 mmHg 84%

5 Novembro, Quinta-feira

Tempo Temperatura Precipitação Vento Pressão Humidade
00:00 +16°C° 0 mm 1 m/s 765 mmHg 84%
01:00 +16°C° 0 mm 1 m/s 765 mmHg 84%
02:00 +16°C° 0 mm 1 m/s 765 mmHg 86%
03:00 +15°C° 0 mm 1 m/s 766 mmHg 88%
04:00 +15°C° 0 mm 1 m/s 766 mmHg 89%
05:00 +15°C° 0 mm 2 m/s 766 mmHg 90%
06:00 +15°C° 0 mm 2 m/s 766 mmHg 91%
07:00 +15°C° 0 mm 2 m/s 766 mmHg 92%
08:00 +16°C° 0 mm 2 m/s 767 mmHg 86%
09:00 +18°C° 0 mm 3 m/s 767 mmHg 81%
10:00 +19°C° 0 mm 3 m/s 767 mmHg 75%
11:00 +20°C° 0 mm 2 m/s 767 mmHg 71%
12:00 +20°C° 0 mm 2 m/s 767 mmHg 67%
13:00 +21°C° 0 mm 2 m/s 767 mmHg 63%
14:00 +21°C° 0 mm 2 m/s 767 mmHg 66%
15:00 +20°C° 0 mm 2 m/s 767 mmHg 68%
16:00 +20°C° 0 mm 3 m/s 767 mmHg 70%
17:00 +19°C° 0 mm 3 m/s 767 mmHg 75%
18:00 +18°C° 0 mm 3 m/s 767 mmHg 80%
19:00 +17°C° 0 mm 3 m/s 767 mmHg 85%
20:00 +17°C° 0 mm 3 m/s 767 mmHg 88%
21:00 +16°C° 0 mm 3 m/s 767 mmHg 90%
22:00 +16°C° 0 mm 3 m/s 767 mmHg 93%
23:00 +16°C° 0 mm 3 m/s 767 mmHg 92%
Mostrar mais